Weather History for Gaylord, MI

Change the Weather History Date:

Saturday, October 26, 2013

  Actual Average Record
Temperature  
Mean Temperature 38 °F -  
Max Temperature 43 °F 53 °F 74 °F (1989)
Min Temperature 34 °F 35 °F 18 °F (1962)
Degree Days  
Heating Degree Days 27    
Moisture  
Dew Point 34 °F    
Average Humidity 84    
Maximum Humidity 97    
Minimum Humidity 67    
Precipitation  
Precipitation 0.50 in - - ()
Sea Level Pressure  
Sea Level Pressure 29.74 in    
Wind  
Wind Speed 15 mph (West)    
Max Wind Speed 23 mph    
Max Gust Speed 36 mph    
Visibility 8 miles    
Events Rain , Snow , Thunderstorm    
Averages and records for this station are not official NWS values.
T = Trace of Precipitation, MM = Missing Value Source: NWS Daily Summary

Daily Weather History Graph

Daily Weather History Graph

Search for Another Location

Airport:

Trip Planner

Search our weather history database for the weather conditions in past years. The results will help you decide how hot, cold, wet, or windy it might be!

Date:

Astronomy

Oct. 26, 2013 Rise Set
Actual Time 8:09 AM EDT 6:35 PM EDT
Civil Twilight 7:39 AM EDT 7:05 PM EDT
Nautical Twilight 7:04 AM EDT 7:39 PM EDT
Astronomical Twilight 6:30 AM EDT 8:13 PM EDT
Moon No Moon Rise 2:27 PM EDT
Length of Visible Light 11h 26m
Length of Day
10h 25m
Waning Gibbous, 53% of the Moon is Illuminated
Oct 26
Waning Gibbous
Oct 26
Last Quarter
Nov 3
New
Nov 10
First Quarter
Nov 17
Full

Hourly Weather History & Observations

Time (EDT) Temp. Windchill Dew Point Humidity Pressure Visibility Wind Dir Wind Speed Gust Speed Precip Events Conditions
12:53 AM 37.0 °F 27.0 °F 35.1 °F 93% 29.80 in 6.0 mi SW 18.4 mph 27.6 mph 0.07 in Rain Light Rain
1:05 AM 37.0 °F 27.0 °F 35.1 °F 93% 29.75 in 6.0 mi SW 18.4 mph 27.6 mph 0.02 in Rain Light Rain
1:53 AM 37.0 °F 26.4 °F 35.1 °F 93% 29.75 in 7.0 mi SW 20.7 mph 28.8 mph 0.07 in Rain Light Rain
2:53 AM 37.9 °F 27.6 °F 37.0 °F 97% 29.70 in 7.0 mi SW 20.7 mph 35.7 mph 0.05 in Snow Light Snow
3:11 AM 37.9 °F 27.6 °F 36.0 °F 93% 29.65 in 7.0 mi SW 20.7 mph 31.1 mph 0.01 in Rain Light Rain
3:41 AM 39.0 °F 28.5 °F 36.0 °F 89% 29.64 in 10.0 mi SW 23.0 mph 31.1 mph 0.01 in   Overcast
3:53 AM 39.0 °F 29.6 °F 36.0 °F 89% 29.66 in 10.0 mi SW 18.4 mph 34.5 mph 0.01 in   Overcast
4:53 AM 39.9 °F 30.8 °F 36.0 °F 86% 29.63 in 10.0 mi SW 18.4 mph - 0.00 in Rain Light Rain
5:53 AM 41.0 °F 31.6 °F 35.1 °F 79% 29.61 in 10.0 mi SW 20.7 mph 29.9 mph 0.00 in   Mostly Cloudy
6:30 AM 41.0 °F 32.8 °F 35.1 °F 79% 29.58 in 10.0 mi SW 16.1 mph 25.3 mph 0.00 in Rain , Thunderstorm Light Thunderstorms and Rain
6:49 AM 39.2 °F 30.8 °F 35.6 °F 87% 29.61 in 2.0 mi West 15.0 mph 28.8 mph 0.11 in Rain , Thunderstorm Heavy Thunderstorms and Rain
6:53 AM 39.0 °F 29.6 °F 35.1 °F 86% 29.64 in 2.5 mi West 18.4 mph 28.8 mph 0.12 in Rain , Thunderstorm Heavy Thunderstorms and Rain
7:00 AM 39.0 °F 29.9 °F 36.0 °F 89% 29.59 in 6.0 mi WSW 17.3 mph 28.8 mph 0.01 in Rain , Thunderstorm Light Thunderstorms and Rain
7:09 AM 39.0 °F 31.0 °F 36.0 °F 89% 29.60 in 10.0 mi WSW 13.8 mph - 0.01 in Rain Light Rain
7:53 AM 39.0 °F 32.8 °F 36.0 °F 89% 29.63 in 10.0 mi WSW 9.2 mph - 0.01 in   Mostly Cloudy
8:53 AM 37.9 °F 34.4 °F 37.0 °F 97% 29.65 in 10.0 mi SW 4.6 mph - N/A   Mostly Cloudy
9:53 AM 41.0 °F 35.8 °F 39.0 °F 93% 29.65 in 10.0 mi West 8.1 mph - 0.00 in   Mostly Cloudy
10:53 AM 42.1 °F 38.4 °F 34.0 °F 73% 29.66 in 10.0 mi Variable 5.8 mph 17.3 mph N/A   Overcast
11:53 AM 42.1 °F 35.7 °F 33.1 °F 70% 29.68 in 10.0 mi WNW 11.5 mph 27.6 mph N/A   Overcast
12:53 PM 41.0 °F 35.8 °F 32.0 °F 70% 29.71 in 10.0 mi WNW 8.1 mph 21.9 mph 0.00 in   Overcast
1:53 PM 41.0 °F 34.7 °F 33.1 °F 73% 29.72 in 10.0 mi WNW 10.4 mph 23.0 mph 0.00 in   Mostly Cloudy
2:53 PM 41.0 °F 33.5 °F 30.9 °F 67% 29.73 in 10.0 mi WNW 13.8 mph 26.5 mph 0.00 in   Overcast
3:31 PM 41.0 °F 34.7 °F 33.1 °F 73% 29.71 in 10.0 mi NW 10.4 mph 24.2 mph 0.00 in   Overcast
3:41 PM 42.1 °F 36.6 °F 33.1 °F 70% 29.72 in 10.0 mi WNW 9.2 mph 17.3 mph 0.00 in Rain Light Rain
3:49 PM 42.8 °F 37.0 °F 33.8 °F 70% 29.72 in 10.0 mi WNW 10.4 mph 27.6 mph 0.00 in Rain Light Rain
3:53 PM 42.1 °F 34.2 °F 33.1 °F 70% 29.75 in 10.0 mi WNW 16.1 mph 27.6 mph 0.00 in   Overcast
4:02 PM 41.0 °F 33.9 °F 32.0 °F 70% 29.73 in 10.0 mi WNW 12.7 mph 25.3 mph 0.00 in Rain Light Rain
4:53 PM 41.0 °F 33.9 °F 33.1 °F 73% 29.78 in 10.0 mi WNW 12.7 mph 24.2 mph 0.00 in   Mostly Cloudy
5:00 PM 39.9 °F 31.4 °F 33.1 °F 77% 29.75 in 10.0 mi NW 16.1 mph 25.3 mph N/A   Overcast
5:10 PM 39.9 °F 32.9 °F 33.1 °F 77% 29.76 in 10.0 mi WNW 11.5 mph 25.3 mph N/A   Overcast
5:24 PM 39.0 °F 33.4 °F 34.0 °F 82% 29.77 in 10.0 mi WNW 8.1 mph 24.2 mph 0.00 in   Overcast
5:53 PM 37.0 °F 29.3 °F 34.0 °F 89% 29.82 in 5.0 mi NW 11.5 mph 20.7 mph 0.02 in Rain Rain
6:53 PM 37.0 °F 31.6 °F 34.0 °F 89% 29.86 in 7.0 mi WNW 6.9 mph - 0.01 in Rain Rain
7:51 PM 35.6 °F 29.9 °F 33.8 °F 93% 29.85 in 10.0 mi Variable 6.9 mph - 0.01 in Rain Light Rain
7:53 PM 36.0 °F 29.6 °F 34.0 °F 93% 29.89 in 10.0 mi WNW 8.1 mph - 0.01 in Rain Light Rain
8:01 PM 36.0 °F 29.0 °F 33.1 °F 89% 29.86 in 7.0 mi WNW 9.2 mph - 0.00 in Rain Light Rain
8:53 PM 35.1 °F 29.3 °F 33.1 °F 92% 29.91 in 4.0 mi NNW 6.9 mph - 0.04 in Rain Light Rain
9:17 PM 34.0 °F 29.8 °F 32.0 °F 92% 29.88 in 2.5 mi Variable 4.6 mph - 0.03 in Snow Light Snow
9:20 PM 34.0 °F 29.8 °F 32.0 °F 92% 29.88 in 3.0 mi NW 4.6 mph - 0.03 in Snow Light Snow
9:53 PM 34.0 °F 27.2 °F 32.0 °F 92% 29.92 in 4.0 mi West 8.1 mph - 0.05 in Rain Rain
10:12 PM 34.0 °F 27.2 °F 32.0 °F 92% 29.89 in 4.0 mi WNW 8.1 mph - 0.02 in Snow Light Snow
10:53 PM 34.0 °F 28.0 °F 32.0 °F 92% 29.94 in 6.0 mi Variable 6.9 mph - 0.04 in Snow Light Snow
11:53 PM 34.0 °F 31.0 °F 32.0 °F 92% 29.95 in 10.0 mi West 3.5 mph - 0.00 in   Mostly Cloudy